Livingston, MT

7:53 PM MST on November 22, 2017 (GMT -0700)
Mission

Weather History for KLVM - November, 2013

Change the Weather History Date:

Tuesday, November 5, 2013

  Actual Average Record
Temperature  
Mean Temperature 30 °F 38 °F  
Max Temperature 41 °F 49 °F 72 °F (1975)
Min Temperature 19 °F 27 °F -2 °F (1959)
Degree Days  
Heating Degree Days 35 27  
Month to date heating degree days 138 130  
Since 1 July heating degree days 990 1158  
Cooling Degree Days 0 0  
Month to date cooling degree days 0  
Year to date cooling degree days 230  
Moisture  
Dew Point 15 °F    
Average Humidity 56    
Maximum Humidity 84    
Minimum Humidity 28    
Precipitation  
Precipitation 0.00 in 0.02 in 0.32 in (1990)
Month to date precipitation 0.21 0.10  
Year to date precipitation 11.15 13.80  
Sea Level Pressure  
Sea Level Pressure 30.13 in    
Wind  
Wind Speed 22 mph (WSW)    
Max Wind Speed 40 mph    
Max Gust Speed 54 mph    
Visibility 10 miles    
Events      
T = Trace of Precipitation, MM = Missing Value Source: NWS Daily Summary

Daily Weather History Graph

Daily Weather History Graph

Search for Another Location

Airport or City:

Trip Planner

Search our weather history database for the weather conditions in past years. The results will help you decide how hot, cold, wet, or windy it might be!

Date:

Astronomy

Nov. 05, 2013 Rise Set
Actual Time 7:07 AM MST 5:02 PM MST
Civil Twilight 6:36 AM MST 5:33 PM MST
Nautical Twilight 6:01 AM MST 6:09 PM MST
Astronomical Twilight 5:26 AM MST 6:43 PM MST
Moon 9:30 AM MST (11/5) 7:02 PM MST (11/5)
Length of Visible Light 10h 57m
Length of Day
9h 54m
Waxing Crescent, 7% of the Moon is Illuminated
Nov 5
Waxing Crescent
Nov 9
First Quarter
Nov 17
Full
Nov 25
Last Quarter
Dec 2
New

Hourly Weather History & Observations

Time (MST) Temp. Windchill Dew Point Humidity Pressure Visibility Wind Dir Wind Speed Gust Speed Precip Events Conditions
12:53 AM 21.0 °F 9.9 °F 15.1 °F 78% 30.16 in 10.0 mi NW 10.4 mph - N/A   Clear
1:53 AM 19.9 °F 8.6 °F 15.1 °F 81% 30.18 in 10.0 mi NW 10.4 mph - N/A   Partly Cloudy
2:53 AM 19.0 °F 8.2 °F 15.1 °F 85% 30.17 in 10.0 mi NW 9.2 mph - N/A   Scattered Clouds
3:53 AM 25.0 °F 15.5 °F 17.1 °F 72% 30.14 in 10.0 mi West 9.2 mph - N/A   Overcast
4:53 AM 25.0 °F 12.6 °F 15.1 °F 66% 30.16 in 10.0 mi WSW 15.0 mph - N/A   Partly Cloudy
5:53 AM 27.0 °F 16.1 °F 17.1 °F 66% 30.17 in 10.0 mi WSW 12.7 mph - N/A   Overcast
6:53 AM 25.0 °F 13.6 °F 12.9 °F 60% 30.18 in 10.0 mi WSW 12.7 mph - N/A   Overcast
7:53 AM 26.1 °F 13.6 °F 12.9 °F 58% 30.21 in 10.0 mi West 16.1 mph - N/A   Partly Cloudy
8:53 AM 28.0 °F 14.9 °F 14.0 °F 56% 30.20 in 10.0 mi WSW 19.6 mph - N/A   Clear
9:53 AM 30.9 °F 18.7 °F 12.9 °F 47% 30.19 in 10.0 mi West 19.6 mph 32.2 mph N/A   Clear
10:53 AM 34.0 °F 20.1 °F 12.9 °F 42% 30.16 in 10.0 mi SW 31.1 mph 41.4 mph N/A   Clear
11:53 AM 37.0 °F 24.9 °F 10.9 °F 34% 30.14 in 10.0 mi WSW 27.6 mph 35.7 mph N/A   Clear
12:53 PM 39.0 °F 28.8 °F 12.0 °F 33% 30.10 in 10.0 mi WSW 21.9 mph 34.5 mph N/A   Scattered Clouds
1:53 PM 39.9 °F 29.5 °F 14.0 °F 35% 30.09 in 10.0 mi WSW 24.2 mph 34.5 mph N/A   Clear
2:53 PM 41.0 °F 30.9 °F 10.9 °F 29% 30.08 in 10.0 mi West 24.2 mph 33.4 mph N/A   Clear
3:53 PM 37.9 °F 26.6 °F 12.9 °F 36% 30.07 in 10.0 mi West 25.3 mph 33.4 mph N/A   Scattered Clouds
4:53 PM 37.0 °F 24.1 °F 16.0 °F 42% 30.09 in 10.0 mi WSW 32.2 mph 48.3 mph N/A   Overcast
5:53 PM 35.1 °F 21.6 °F 16.0 °F 46% 30.11 in 10.0 mi SW 31.1 mph 44.9 mph N/A   Overcast
6:53 PM 34.0 °F 20.5 °F 17.1 °F 50% 30.14 in 10.0 mi SW 28.8 mph 42.6 mph N/A   Overcast
7:53 PM 35.1 °F 21.8 °F 17.1 °F 48% 30.10 in 10.0 mi SW 29.9 mph 42.6 mph N/A   Mostly Cloudy
8:53 PM 33.1 °F 18.2 °F 19.9 °F 59% 30.11 in 10.0 mi SW 34.5 mph 43.7 mph N/A   Overcast
9:53 PM 33.1 °F 20.1 °F 21.0 °F 61% 30.11 in 10.0 mi WSW 25.3 mph 39.1 mph N/A   Overcast
10:53 PM 35.1 °F 21.6 °F 19.0 °F 52% 30.07 in 10.0 mi SW 31.1 mph 44.9 mph N/A   Mostly Cloudy
11:53 PM 32.0 °F 18.6 °F 24.1 °F 73% 30.09 in 10.0 mi SW 25.3 mph 40.3 mph N/A   Overcast